User: anonymous   Login
Location: Caltech
(34.1382°N, 118.1253°W)
Time: 23:11:41
(UTC-07:00)
Language:

GPS 2-04 Rocket1 - Orbit

View from above orbital plane
View from above orbital plane
View from above satellite
View from above satellite

Ground track
Ground track

The orbit data is extracted from the following two-line orbital elements,

1 20303U 89085B   17080.53846667 +.00003042 +00000-0 +11010-3 0  9994
2 20303 035.6293 226.7658 0107156 117.3871 243.7804 15.22935124487171
Epoch (UTC): 21 March 2017 12:55:23
Eccentricity: 0.0107156
inclination: 35.6293°
perigee height: 423 km
apogee height: 570 km
right ascension of ascending node: 226.7658°
argument of perigee: 117.3871°
revolutions per day: 15.22935124
mean anomaly at epoch: 243.7804°
orbit number at epoch: 48717

The dashed part of the orbit path shows where the satellite is in the earth's shadow,  

DLR